Location: Ehrke Reservoir
(40.0279°N, 99.6641°W)
Time: 21:49:27
(UTC+00:00)

STARLINK-1075 - Pass Details

Date: 20 January 2020
Orbit: 348 x 351 km, 53.0° (Epoch: 25 February)

Event Time Altitude Azimuth Distance (km) Brightness Sun altitude
Rises 00:08:47 0° 251° (WSW) 2,159 9.6 -5.5°
Reaches altitude 10° 00:10:55 10° 262° (W) 1,319 7.2 -5.9°
Maximum altitude 00:13:35 31° 327° (NNW) 656 4.2 -6.4°
Drops below altitude 10° 00:16:16 10° 33° (NNE) 1,325 5.1 -6.9°
Enters shadow 00:16:59 - 38° (NE) 1,597 5.5 -7.0°
